Find Starlink 11455

NORAD ID: 62463 Int'l Des: 2024-254 Owner: SPXS Country: US Constellation: starlink operational
又名: STARLINK-11455 [DTC] celestrak
LEOCIRCULAR

当前视图

正在加载3D地球...

About Starlink 11455

Starlink 11455 (NORAD 62463) is a starlink constellation satellite (v2 mini d2c) launched Dec 31, 2024 by SPXS of US. It operates in LEO, CIRCULAR orbit with a mass of 960.00 kg.

即将过境

Passes for default location (London). Set your location on the main map for personalized predictions.

高度历史

Loading altitude history...

两行轨道根数

1 62463U 24254B 26264.31991890 .00140787 00000-0 10750-2 0 9990
2 62463 43.0025 124.2512 0001041 343.1002 16.9831 15.70998617100162
Epoch: Sep 21, 2026 • Age: 17 hours

当前状态

高度 356.0 km
远地点 / 近地点 N/A
速度 7.70 km/s
星下点 25.66°N, 107.71°W
发射日期 Dec 31, 2024
运行时间 1.7 years
类型 internet

技术详情

分类 Payload
质量 960.00 kg
干质量 910.00 kg
长度 0.30 m
跨度 29.00 m
形状 ? Box + pan
制造商 SPXS
平台类型 Starlink V2MD
阶段状态 In Orbit
所有者/国家 SPXS/US

Most Searched